World > North America > United States > New York > Mongaup Valley

Hourly Mongaup Valley, NY Regional Weather

Feedback E-mail the Weather

Quick WX

Mongaup Valley, NY Weather Maps

°F °C°F °C
Mongaup Valley Weather Map
UTC Time: 8/13/2022, 13:18
Your Time:

Mongaup Valley, NY Regional Weather

Expires:202208131400;;026790
ASUS41 KALY 131310
RWRALY

NEW YORK STATE HOURLY WEATHER ROUNDUP
NATIONAL WEATHER SERVICE ALBANY NY
900 AM EDT SAT AUG 13 2022

NOTE: "FAIR" INDICATES FEW OR NO CLOUDS BELOW 12,000 FEET WITH NO
SIGNIFICANT WEATHER AND/OR NO OBSTRUCTIONS TO VISIBILITY.


NYZ032-033-038>043-046>054-057>066-NYZ062>081-082-084-131400-
EAST

  
CITY           SKY/WX    TMP DP  RH WIND       PRES   REMARKS
ALBANY         MOSUNNY   66  52  60 N6        30.16R                  
GLENS FALLS    CLOUDY    63  52  67 NW7       30.15S                  
POUGHKEEPSIE   SUNNY     67  50  54 N8        30.13S                  
NEWBURGH       MOSUNNY   66  50  55 VRB5      30.14S                  
MONTGOMERY     SUNNY     65  51  60 CALM      30.13                   
WHITE PLAINS   MOSUNNY   70  54  56 N15       30.11S                  
ISLIP          MOSUNNY   70  53  54 N17G23    30.09R                  
NEW YORK CITY  MOSUNNY   70  48  45 N14G21    30.10S                  
CENTRAL PARK   SUNNY     69  50  50 VRB3      30.14S                  
$$


SKY/WX - Weather  TMP - Temperature  DP - Dew Point  RH - Humidity
WIND - Wind Direction/Speed PRES - Barometric Pressure VSB - Visibility
WCI - Wind Chill Index E13G22 Wind - East Wind 13 mph/Gusts of 22 mph

Trending Headlines

Mongaup Valley Radar Loop



Mongaup Valley Quick Facts


National Two Day Weather Forecast


E-mail the Mongaup Valley Weather Forecast

Voice your opinion or tell us about page issues...